Brenham, TX

7:13 PM CDT on March 23, 2017 (GMT -0500)
Brenham

Weather History for K11R - May, 2009

Change the Weather History Date:

Wednesday, May 13, 2009

  Actual Average (KCLL) Record (KCLL)
Temperature  
Mean Temperature 80 °F -  
Max Temperature 89 °F 84 °F 99 °F (1925)
Min Temperature 71 °F 63 °F 49 °F (1960)
Cooling Degree Days 15    
Growing Degree Days 30 (Base 50)    
Moisture  
Dew Point 69 °F    
Average Humidity 74    
Maximum Humidity 100    
Minimum Humidity 43    
Precipitation  
Precipitation 0.00 in - - ()
Sea Level Pressure  
Sea Level Pressure 29.89 in    
Wind  
Wind Speed 10 mph (SSE)    
Max Wind Speed 22 mph    
Max Gust Speed 29 mph    
Visibility 8 miles    
Events      
Averages and records for this station are not official NWS values.
T = Trace of Precipitation, MM = Missing Value Source: NWS Daily Summary

Daily Weather History Graph

Daily Weather History Graph

Search for Another Location

Airport or City:

Trip Planner

Search our weather history database for the weather conditions in past years. The results will help you decide how hot, cold, wet, or windy it might be!

Date:

Astronomy

May. 13, 2009 Rise Set
Actual Time 6:32 AM CDT 8:11 PM CDT
Civil Twilight 6:06 AM CDT 8:37 PM CDT
Nautical Twilight 5:35 AM CDT 9:08 PM CDT
Astronomical Twilight 5:02 AM CDT 9:41 PM CDT
Moon No Moon Rise 9:53 AM CDT (5/13)
Length of Visible Light 14h 30m
Length of Day
13h 38m
Waning Gibbous, 82% of the Moon is Illuminated
May 13
Waning Gibbous
May 17
Last Quarter
May 24
New
May 30
First Quarter
Jun 7
Full

Hourly Weather History & Observations

Time (CDT) Temp. Heat Index Dew Point Humidity Pressure Visibility Wind Dir Wind Speed Gust Speed Precip Events Conditions
12:02 AM 73.4 °F - 71.6 °F 94% 29.90 in 10.0 mi SSE 10.4 mph 17.3 mph N/A   Clear
12:22 AM 73.4 °F - 71.6 °F 94% 29.90 in 10.0 mi SSE 8.1 mph - N/A   Scattered Clouds
12:43 AM 73.4 °F - 71.6 °F 94% 29.90 in 10.0 mi SSE 9.2 mph - N/A   Scattered Clouds
1:03 AM 73.4 °F - 71.6 °F 94% 29.90 in 10.0 mi SSE 9.2 mph - N/A   Scattered Clouds
1:23 AM 73.4 °F - 71.6 °F 94% 29.90 in 10.0 mi SSE 5.8 mph - N/A   Scattered Clouds
1:42 AM 73.4 °F - 69.8 °F 88% 29.91 in 10.0 mi SSE 6.9 mph - N/A   Scattered Clouds
2:02 AM 73.4 °F - 69.8 °F 88% 29.91 in 10.0 mi SSE 5.8 mph - N/A   Scattered Clouds
2:23 AM 71.6 °F - 69.8 °F 94% 29.90 in 7.0 mi SSE 5.8 mph - N/A   Scattered Clouds
2:42 AM 71.6 °F - 69.8 °F 94% 29.90 in 7.0 mi SSE 5.8 mph - N/A   Scattered Clouds
3:03 AM 71.6 °F - 69.8 °F 94% 29.91 in 7.0 mi SSE 4.6 mph - N/A   Clear
3:22 AM 71.6 °F - 69.8 °F 94% 29.91 in 5.0 mi SSE 3.5 mph - N/A   Scattered Clouds
3:42 AM 71.6 °F - 69.8 °F 94% 29.91 in 5.0 mi SSE 3.5 mph - N/A   Mostly Cloudy
4:03 AM 71.6 °F - 69.8 °F 94% 29.91 in 5.0 mi SE 3.5 mph - N/A   Mostly Cloudy
4:22 AM 71.6 °F - 69.8 °F 94% 29.91 in 5.0 mi Calm Calm - N/A   Mostly Cloudy
4:42 AM 71.6 °F - 69.8 °F 94% 29.90 in 7.0 mi SSE 4.6 mph - N/A   Mostly Cloudy
5:02 AM 71.6 °F - 69.8 °F 94% 29.90 in 5.0 mi SSE 4.6 mph - N/A   Overcast
5:23 AM 71.6 °F - 69.8 °F 94% 29.90 in 5.0 mi SE 4.6 mph - N/A   Mostly Cloudy
5:44 AM 71.6 °F - 69.8 °F 94% 29.90 in 5.0 mi SE 4.6 mph - N/A   Mostly Cloudy
6:05 AM 71.6 °F - 71.6 °F 100% 29.91 in 5.0 mi ESE 4.6 mph - N/A   Mostly Cloudy
6:23 AM 71.6 °F - 71.6 °F 100% 29.91 in 5.0 mi ESE 4.6 mph - N/A   Overcast
6:43 AM 71.6 °F - 71.6 °F 100% 29.91 in 4.0 mi SE 5.8 mph - N/A   Mostly Cloudy
7:02 AM 71.6 °F - 71.6 °F 100% 29.91 in 4.0 mi SE 5.8 mph - N/A   Mostly Cloudy
7:22 AM 71.6 °F - 71.6 °F 100% 29.90 in 4.0 mi SE 6.9 mph - N/A   Mostly Cloudy
7:42 AM 73.4 °F - 71.6 °F 94% 29.91 in 5.0 mi SSE 6.9 mph - N/A   Mostly Cloudy
8:02 AM 73.4 °F - 71.6 °F 94% 29.90 in 5.0 mi SE 8.1 mph - N/A   Mostly Cloudy
8:22 AM 75.2 °F - 71.6 °F 89% 29.91 in 5.0 mi SSE 6.9 mph - N/A   Mostly Cloudy
8:42 AM 75.2 °F - 71.6 °F 89% 29.91 in 5.0 mi SSE 11.5 mph - N/A   Mostly Cloudy
9:02 AM 77.0 °F - 71.6 °F 83% 29.91 in 7.0 mi South 11.5 mph 19.6 mph N/A   Mostly Cloudy
9:23 AM 78.8 °F - 71.6 °F 78% 29.91 in 7.0 mi South 13.8 mph 21.9 mph N/A   Scattered Clouds
10:02 AM 80.6 °F 84.6 °F 71.6 °F 74% 29.91 in 7.0 mi South 17.3 mph 26.5 mph N/A   Scattered Clouds
10:22 AM 80.6 °F 84.6 °F 71.6 °F 74% 29.92 in 7.0 mi South 13.8 mph 28.8 mph N/A   Scattered Clouds
10:42 AM 82.4 °F 87.2 °F 71.6 °F 70% 29.92 in 10.0 mi South 20.7 mph - N/A   Scattered Clouds
11:02 AM 82.4 °F 87.2 °F 71.6 °F 70% 29.92 in 10.0 mi South 15.0 mph 25.3 mph N/A   Mostly Cloudy
11:22 AM 84.2 °F 89.6 °F 71.6 °F 66% 29.92 in 10.0 mi South 20.7 mph 28.8 mph N/A   Mostly Cloudy
11:42 AM 84.2 °F 89.6 °F 71.6 °F 66% 29.91 in 10.0 mi South 17.3 mph 24.2 mph N/A   Scattered Clouds
12:02 PM 84.2 °F 88.4 °F 69.8 °F 62% 29.91 in 10.0 mi South 16.1 mph 27.6 mph N/A   Scattered Clouds
12:22 PM 86.0 °F 91.8 °F 71.6 °F 62% 29.91 in 10.0 mi South 16.1 mph 26.5 mph N/A   Scattered Clouds
12:42 PM 86.0 °F 90.4 °F 69.8 °F 58% 29.90 in 10.0 mi South 19.6 mph 25.3 mph N/A   Scattered Clouds
1:23 PM 87.8 °F 92.6 °F 69.8 °F 55% 29.89 in 7.0 mi South 12.7 mph 24.2 mph N/A   Scattered Clouds
1:43 PM 87.8 °F 92.6 °F 69.8 °F 55% 29.88 in 10.0 mi South 17.3 mph 28.8 mph N/A   Scattered Clouds
2:02 PM 87.8 °F 92.6 °F 69.8 °F 55% 29.87 in 10.0 mi South 18.4 mph 27.6 mph N/A   Scattered Clouds
2:22 PM 87.8 °F 92.6 °F 69.8 °F 55% 29.87 in 10.0 mi South 17.3 mph 24.2 mph N/A   Scattered Clouds
2:42 PM 87.8 °F 92.6 °F 69.8 °F 55% 29.86 in 10.0 mi South 18.4 mph 26.5 mph N/A   Scattered Clouds
3:02 PM 87.8 °F 92.6 °F 69.8 °F 55% 29.86 in 10.0 mi South 21.9 mph 28.8 mph N/A   Clear
3:22 PM 89.6 °F 93.4 °F 68.0 °F 49% 29.85 in 10.0 mi South 19.6 mph 25.3 mph N/A   Clear
3:42 PM 89.6 °F 92.2 °F 66.2 °F 46% 29.84 in 10.0 mi South 16.1 mph 26.5 mph N/A   Clear
4:02 PM 89.6 °F 91.1 °F 64.4 °F 43% 29.84 in 10.0 mi South 19.6 mph 27.6 mph N/A   Clear
4:22 PM 87.8 °F 89.4 °F 64.4 °F 46% 29.83 in 10.0 mi South 18.4 mph 26.5 mph N/A   Clear
4:42 PM 87.8 °F 89.4 °F 64.4 °F 46% 29.83 in 10.0 mi South 19.6 mph 28.8 mph N/A   Clear
5:02 PM 86.0 °F 87.3 °F 64.4 °F 48% 29.82 in 10.0 mi South 18.4 mph 24.2 mph N/A   Clear
5:26 PM 86.0 °F 87.3 °F 64.4 °F 48% 29.82 in 10.0 mi South 15.0 mph 25.3 mph N/A   Clear
5:43 PM 86.0 °F 87.3 °F 64.4 °F 48% 29.82 in 10.0 mi South 19.6 mph 26.5 mph N/A   Clear
6:02 PM 86.0 °F 88.2 °F 66.2 °F 51% 29.83 in 10.0 mi SSE 20.7 mph 25.3 mph N/A   Clear
6:22 PM 84.2 °F 86.6 °F 66.2 °F 55% 29.84 in 10.0 mi South 13.8 mph 26.5 mph N/A   Clear
7:04 PM 84.2 °F 85.6 °F 64.4 °F 51% 29.84 in 10.0 mi South 15.0 mph 21.9 mph N/A   Clear
7:23 PM 82.4 °F 84.6 °F 66.2 °F 58% 29.85 in 10.0 mi SSE 12.7 mph - N/A   Clear
7:42 PM 82.4 °F 84.6 °F 66.2 °F 58% 29.85 in 10.0 mi SSE 11.5 mph 17.3 mph N/A   Clear
8:02 PM 80.6 °F 82.7 °F 66.2 °F 61% 29.85 in 10.0 mi SSE 10.4 mph 18.4 mph N/A   Clear
8:22 PM 80.6 °F 82.7 °F 66.2 °F 61% 29.86 in 10.0 mi SSE 16.1 mph 21.9 mph N/A   Clear
8:43 PM 78.8 °F - 66.2 °F 65% 29.87 in 10.0 mi SSE 11.5 mph 18.4 mph N/A   Clear
9:04 PM 78.8 °F - 66.2 °F 65% 29.88 in 10.0 mi SSE 8.1 mph - N/A   Clear
9:22 PM 77.0 °F - 66.2 °F 69% 29.89 in 10.0 mi SSE 8.1 mph - N/A   Clear
9:42 PM 77.0 °F - 66.2 °F 69% 29.91 in 10.0 mi SSE 9.2 mph - N/A   Clear
10:02 PM 77.0 °F - 66.2 °F 69% 29.91 in 10.0 mi SSE 11.5 mph 17.3 mph N/A   Clear
10:22 PM 77.0 °F - 68.0 °F 74% 29.92 in 10.0 mi SSE 9.2 mph - N/A   Clear
10:42 PM 75.2 °F - 68.0 °F 78% 29.93 in 10.0 mi SSE 8.1 mph - N/A   Clear
11:02 PM 75.2 °F - 68.0 °F 78% 29.94 in 10.0 mi SSE 8.1 mph - N/A   Clear
11:22 PM 73.4 °F - 68.0 °F 83% 29.95 in 10.0 mi SSE 6.9 mph - N/A   Clear
11:43 PM 73.4 °F - 69.8 °F 88% 29.94 in 10.0 mi SSE 4.6 mph - N/A   Clear